Weather Roundup
Issued by NWS

Home | Current Version | Previous Version | Text Only | Print | Product List | Glossary On
Versions: 1 2 3 4 5 6 7 8 9 10 11 12 13 14 15 16 17 18 19 20 21 22 23 24 25 26 27 28 29 30 31 32 33 34 35 36 37 38 39 40 41 42 43 44 45 46 47 48 49 50
925
NZUS93 KARX 290310
HRRWXR

CURRENT HOURLY OBSERVATIONS ACROSS
MUCH OF THE UPPER MISSISSIPPI VALLEY
NATIONAL WEATHER SERVICE LA CROSSE WI
1000 PM CDT SUN MAY 28 2017


...SOUTHEAST MINNESOTA...


CITY           SKY/WX    TMP DP  RH WIND       PRES   REMARKS
ROCHESTER      CLOUDY    57  47  69 SW8       29.76S
ROCHESTER/MAYO FAIR      65  45  48 W5        29.75R
WINONA         CLEAR     61  46  59 CALM      29.73S
AUSTIN         CLOUDY    63  39  42 W8        29.78R
ALBERT LEA     MOCLDY    68  41  37 NW10G22   29.78R
DODGE CENTER   CLOUDY    63  43  48 W15       29.77R
PRESTON        CLEAR     60  42  51 W5        29.77R
OWATONNA       PTCLDY    63  39  42 W10       29.78R
FARIBAULT      CLOUDY    61  45  55 W7        29.78R
$$

...ELSEWHERE IN MINNESOTA...


CITY           SKY/WX    TMP DP  RH WIND       PRES   REMARKS
MINNEAPOLIS    PTCLDY    57  48  72 NW6       29.74S
INTNL FALLS    CLOUDY    54  49  83 NW8       29.64R
DULUTH         MOCLDY    53  48  83 W9        29.65R
RED WING       RAIN      57  48  72 NW7G20    29.73R
REDWOOD FALLS  CLEAR     59  42  53 W14       29.79F
MANKATO        PTCLDY    62  43  49 W14       29.79S
WORTHINGTON    CLOUDY    55  50  83 SW7       29.86F
FAIRMONT       CLOUDY    62  43  49 W16G24    29.83S
$$

...SOUTHWEST WISCONSIN...


CITY           SKY/WX    TMP DP  RH WIND       PRES   REMARKS
LA CROSSE      CLEAR     64  47  53 W6        29.72S
PRAIRIE DU CHI CLEAR     60  48  65 CALM      29.75R
BOSCOBEL       CLEAR     59  52  77 W3        29.75R
LONE ROCK      CLEAR     59  48  67 CALM      29.74R
PLATTEVILLE    CLEAR     62  48  60 SW3       29.77R
FORT MC COY    PTCLDY    61  47  60 NW7       29.74R
CAMP DOUGLAS   CLEAR     54  45  71 NW5       29.73R
MAUSTON-NEW LI PTCLDY    63  45  52 W3        29.72R
VIROQUA        FAIR      62  42  48 CALM      29.75R
WIS DELLS      CLEAR     60  43  52 SW3       29.74R
$$

...ELSEWHERE IN WISCONSIN...


CITY           SKY/WX    TMP DP  RH WIND       PRES   REMARKS
MILWAUKEE      CLEAR     66  47  50 SW5       29.73R
MADISON        CLEAR     61  47  59 SW3       29.74R
GREEN BAY      MOCLDY    60  52  74 W7        29.69R
EAU CLAIRE     CLEAR     53  50  89 SW3       29.70F
BLACK RVR FLS  FAIR      53  46  79 CALM      29.73R
MEDFORD        CLEAR     52  48  86 SW5       29.69S
WAUSAU         CLOUDY    55  49  80 SW6       29.68F
WIS RAPIDS     CLOUDY    58  48  69 NW6       29.73R
MARSHFIELD     CLEAR     51  48  89 SW7       29.70F
RICE LAKE      CLEAR     55  52  90 SW3       29.71S
$$

...NORTHEAST IOWA...


CITY           SKY/WX    TMP DP  RH WIND       PRES   REMARKS
WATERLOO       CLEAR     62  43  49 W7        29.78R
DUBUQUE        CLEAR     60  50  69 CALM      29.78R
DECORAH        CLEAR     64  43  45 CALM      29.75S
MASON CITY     PTCLDY    61  40  45 W12       29.82R
CHARLES CITY   CLEAR     64  39  39 W9        29.80R
OELWEIN        CLEAR     61  45  55 W9        29.79R
$$

...ELSEWHERE IN IOWA...


CITY           SKY/WX    TMP DP  RH WIND       PRES   REMARKS
DES MOINES     PTCLDY    66  42  41 W7        29.85R
IOWA CITY      CLEAR     66  52  60 W8        29.81R
FORT DODGE     CLOUDY    63  39  42 W13G30    29.86R
MARSHALLTOWN   CLEAR     63  45  51 W8        29.81R
CEDAR RAPIDS   CLEAR     62  47  57 W9        29.80R
$$

...NORTHERN ILLINOIS...


CITY           SKY/WX    TMP DP  RH WIND       PRES   REMARKS
CHICAGO-OHARE  CLEAR     68  46  45 W5        29.76R
CHICAGO-MIDWAY CLEAR     69  50  50 W6        29.77R
MOLINE         MOCLDY    68  49  50 CALM      29.77S
ROCKFORD       MOCLDY    62  50  64 CALM      29.78R
PEORIA         CLEAR     64  51  62 CALM      29.81S
$$

NOTE: "FAIR" INDICATES FEW OR NO CLOUDS BELOW 12,000 FEET WITH NO
SIGNIFICANT WEATHER AND/OR OBSTRUCTIONS TO VISIBILITY. WIND
SPEEDS ARE IN MILES-PER-HOUR.




USA.gov is the U.S. government's official web portal to all federal, state and local government web resources and services.